* Astronomy

Members Login
Username 
 
Password 
    Remember Me  
Post Info TOPIC: Asteroid 2010 GZ33


L

Posts: 131433
Date:
RE: Asteroid 2010 GZ33
Permalink  
 


The 92 - 210 metre wide asteroid 2010 GZ33 will make a close pass (65.4 lunar distances, 0.16824 AU), travelling at 7.03 km/second, to the Earth on the 3rd June 2018 @ 02:43 UT ±00:01.

See more

The Lunar Distance (LD), the distance between Earth and the Moon, equals 384,401 km, (or 0.00256 AU).



__________________


L

Posts: 131433
Date:
Permalink  
 

Orbital elements:
2010 GZ33 Earth MOID = 0.1649 AU
Epoch 2010 July 23.0 TT = JDT 2455400.5 MPC
M 5.73739 (2000.0) P Q
n 0.42358807 Peri. 75.47747 -0.00274621 +0.99972681
a 1.7559288 Node 194.42529 -0.94961699 -0.00988159
e 0.3452942 Incl. 5.34619 -0.31340077 +0.02118138
P 2.33 H 22.3 G 0.15 U 9

MPEC 2010 - G94


__________________
Page 1 of 1  sorted by
 
Quick Reply

Please log in to post quick replies.



Create your own FREE Forum
Report Abuse
Powered by ActiveBoard